• In Czech Republic
  • List of Countries
  • For 7 days
  • Water Temperature
  • Satellite Maps
  • Weather Map
  • Weather Widgets
  • user-avatar
    Login

    Hourly Weather Jalalabad

    Today, 22 February, Thursday

    Time Temperature Precipitation Wind Pressure Humidity
    00:00 +15°C° 0 mm 1 mps 709 mmHg 48%
    01:00 +14°C° 0 mm 1 mps 709 mmHg 48%
    02:00 +14°C° 0 mm 1 mps 709 mmHg 47%
    03:00 +14°C° 0 mm 1 mps 709 mmHg 47%
    04:00 +14°C° 0 mm 1 mps 708 mmHg 46%
    05:00 +13°C° 0 mm 1 mps 708 mmHg 45%
    06:00 +14°C° 0 mm 1 mps 708 mmHg 44%
    07:00 +14°C° 0 mm 1 mps 708 mmHg 42%
    08:00 +15°C° 0 mm 1 mps 708 mmHg 41%
    09:00 +16°C° 0 mm 1 mps 708 mmHg 37%
    10:00 +18°C° 0 mm 1 mps 708 mmHg 33%
    11:00 +20°C° 0 mm 1 mps 708 mmHg 30%
    12:00 +20°C° 0 mm 1 mps 708 mmHg 29%
    13:00 +20°C° 0 mm 2 mps 708 mmHg 27%
    14:00 +20°C° 0 mm 2 mps 707 mmHg 26%
    15:00 +20°C° 0 mm 2 mps 707 mmHg 27%
    16:00 +20°C° 0 mm 2 mps 707 mmHg 27%
    17:00 +20°C° 0 mm 2 mps 707 mmHg 27%
    18:00 +20°C° 0 mm 1 mps 708 mmHg 30%
    19:00 +18°C° 0 mm 1 mps 708 mmHg 33%
    20:00 +16°C° 0 mm 1 mps 708 mmHg 35%
    21:00 +16°C° 0 mm 1 mps 709 mmHg 36%
    22:00 +15°C° 0 mm 1 mps 709 mmHg 36%
    23:00 +15°C° 0 mm 1 mps 709 mmHg 37%

    Tomorrow, 23 February, Friday

    Time Temperature Precipitation Wind Pressure Humidity
    00:00 +14°C° 0 mm 1 mps 709 mmHg 37%
    01:00 +14°C° 0 mm 1 mps 709 mmHg 37%
    02:00 +14°C° 0 mm 1 mps 709 mmHg 38%
    03:00 +13°C° 0 mm 1 mps 709 mmHg 38%
    04:00 +13°C° 0 mm 1 mps 709 mmHg 38%
    05:00 +13°C° 0 mm 1 mps 708 mmHg 37%
    06:00 +13°C° 0 mm 1 mps 709 mmHg 36%
    07:00 +14°C° 0 mm 1 mps 709 mmHg 35%
    08:00 +14°C° 0 mm 1 mps 709 mmHg 34%
    09:00 +16°C° 0 mm 1 mps 709 mmHg 31%
    10:00 +18°C° 0 mm 1 mps 709 mmHg 28%
    11:00 +20°C° 0 mm 1 mps 709 mmHg 25%
    12:00 +20°C° 0 mm 1 mps 708 mmHg 25%
    13:00 +21°C° 0 mm 1 mps 708 mmHg 26%
    14:00 +21°C° 0 mm 1 mps 708 mmHg 26%
    15:00 +21°C° 0.1 mm 1 mps 708 mmHg 28%
    16:00 +21°C° 0.1 mm 1 mps 708 mmHg 30%
    17:00 +20°C° 0.1 mm 1 mps 708 mmHg 32%
    18:00 +20°C° 0.3 mm 1 mps 708 mmHg 36%
    19:00 +19°C° 0.3 mm 1 mps 708 mmHg 39%
    20:00 +17°C° 0.3 mm 2 mps 709 mmHg 42%
    21:00 +17°C° 0.7 mm 2 mps 709 mmHg 46%
    22:00 +16°C° 0.7 mm 2 mps 709 mmHg 50%
    23:00 +16°C° 0.7 mm 2 mps 710 mmHg 54%

    Day after tomorrow, 24 February, Saturday

    Time Temperature Precipitation Wind Pressure Humidity
    00:00 +15°C° 0.6 mm 2 mps 709 mmHg 57%
    01:00 +15°C° 0.6 mm 2 mps 709 mmHg 60%
    02:00 +14°C° 0.6 mm 2 mps 709 mmHg 63%
    03:00 +14°C° 0.6 mm 2 mps 709 mmHg 65%
    04:00 +13°C° 0.6 mm 2 mps 709 mmHg 66%
    05:00 +13°C° 0.6 mm 2 mps 709 mmHg 68%
    06:00 +13°C° 0.8 mm 2 mps 709 mmHg 70%
    07:00 +12°C° 0.8 mm 2 mps 710 mmHg 72%
    08:00 +12°C° 0.8 mm 1 mps 710 mmHg 73%
    09:00 +13°C° 0.2 mm 1 mps 710 mmHg 71%
    10:00 +13°C° 0.2 mm 1 mps 710 mmHg 69%
    11:00 +14°C° 0.2 mm 1 mps 710 mmHg 67%
    12:00 +14°C° 0.2 mm 1 mps 710 mmHg 65%
    13:00 +15°C° 0.2 mm 1 mps 709 mmHg 63%
    14:00 +16°C° 0.2 mm 1 mps 709 mmHg 62%
    15:00 +16°C° 0.2 mm 1 mps 709 mmHg 62%
    16:00 +16°C° 0.2 mm 1 mps 709 mmHg 62%
    17:00 +16°C° 0.2 mm 1 mps 709 mmHg 62%
    18:00 +15°C° 0.1 mm 1 mps 709 mmHg 64%
    19:00 +15°C° 0.1 mm 1 mps 710 mmHg 66%
    20:00 +14°C° 0.1 mm 1 mps 710 mmHg 68%
    21:00 +14°C° 0.1 mm 1 mps 711 mmHg 68%
    22:00 +14°C° 0.1 mm 1 mps 711 mmHg 68%
    23:00 +14°C° 0.1 mm 1 mps 711 mmHg 68%

    25 February, Sunday

    Time Temperature Precipitation Wind Pressure Humidity
    00:00 +13°C° 0 mm 1 mps 711 mmHg 68%
    01:00 +13°C° 0 mm 1 mps 711 mmHg 67%
    02:00 +13°C° 0 mm 1 mps 711 mmHg 66%
    03:00 +12°C° 0 mm 1 mps 711 mmHg 66%
    04:00 +12°C° 0 mm 1 mps 711 mmHg 65%
    05:00 +12°C° 0 mm 1 mps 711 mmHg 65%
    06:00 +12°C° 0 mm 1 mps 711 mmHg 63%
    07:00 +13°C° 0 mm 1 mps 712 mmHg 61%
    08:00 +13°C° 0 mm 1 mps 713 mmHg 59%
    09:00 +15°C° 0 mm 1 mps 713 mmHg 57%
    10:00 +16°C° 0 mm 1 mps 713 mmHg 55%
    11:00 +18°C° 0 mm 1 mps 713 mmHg 53%
    12:00 +19°C° 0 mm 1 mps 713 mmHg 51%
    13:00 +20°C° 0 mm 1 mps 712 mmHg 50%
    14:00 +20°C° 0 mm 1 mps 712 mmHg 49%
    15:00 +20°C° 0.3 mm 1 mps 712 mmHg 50%
    16:00 +20°C° 0.3 mm 1 mps 712 mmHg 50%
    17:00 +19°C° 0.3 mm 2 mps 712 mmHg 51%
    18:00 +18°C° 0.5 mm 2 mps 713 mmHg 53%
    19:00 +18°C° 0.5 mm 2 mps 713 mmHg 55%
    20:00 +17°C° 0.5 mm 2 mps 713 mmHg 57%
    21:00 +17°C° 0.4 mm 2 mps 713 mmHg 58%
    22:00 +17°C° 0.4 mm 2 mps 713 mmHg 59%
    23:00 +16°C° 0.4 mm 2 mps 713 mmHg 60%

    26 February, Monday

    Time Temperature Precipitation Wind Pressure Humidity
    00:00 +16°C° 0.3 mm 2 mps 713 mmHg 60%
    01:00 +16°C° 0.3 mm 2 mps 712 mmHg 60%
    02:00 +16°C° 0.3 mm 2 mps 712 mmHg 60%
    03:00 +15°C° 0.3 mm 2 mps 712 mmHg 61%
    04:00 +15°C° 0.3 mm 2 mps 711 mmHg 61%
    05:00 +15°C° 0.3 mm 2 mps 711 mmHg 62%
    06:00 +15°C° 0.4 mm 2 mps 711 mmHg 62%
    07:00 +16°C° 0.4 mm 2 mps 711 mmHg 61%
    08:00 +16°C° 0.4 mm 2 mps 712 mmHg 61%
    09:00 +17°C° 0.3 mm 2 mps 712 mmHg 59%
    10:00 +17°C° 0.3 mm 2 mps 711 mmHg 57%
    11:00 +18°C° 0.3 mm 2 mps 711 mmHg 55%
    12:00 +19°C° 0.2 mm 2 mps 711 mmHg 55%
    13:00 +19°C° 0.2 mm 2 mps 710 mmHg 54%
    14:00 +19°C° 0.2 mm 2 mps 709 mmHg 54%
    15:00 +19°C° 0.2 mm 2 mps 709 mmHg 54%
    16:00 +19°C° 0.2 mm 2 mps 709 mmHg 54%
    17:00 +19°C° 0.2 mm 2 mps 709 mmHg 54%
    18:00 +19°C° 0.3 mm 2 mps 709 mmHg 56%
    19:00 +18°C° 0.3 mm 2 mps 709 mmHg 58%
    20:00 +18°C° 0.3 mm 2 mps 710 mmHg 60%
    21:00 +17°C° 0.8 mm 2 mps 710 mmHg 62%
    22:00 +17°C° 0.8 mm 2 mps 710 mmHg 65%
    23:00 +16°C° 0.8 mm 2 mps 710 mmHg 67%

    27 February, Tuesday

    Time Temperature Precipitation Wind Pressure Humidity
    00:00 +16°C° 0.9 mm 2 mps 709 mmHg 70%
    01:00 +16°C° 0.9 mm 2 mps 709 mmHg 72%
    02:00 +15°C° 0.9 mm 2 mps 709 mmHg 75%
    03:00 +15°C° 0.3 mm 2 mps 709 mmHg 75%
    04:00 +15°C° 0.3 mm 1 mps 709 mmHg 75%
    05:00 +15°C° 0.3 mm 1 mps 709 mmHg 75%
    06:00 +15°C° 0.1 mm 1 mps 709 mmHg 73%
    07:00 +15°C° 0.1 mm 1 mps 710 mmHg 72%
    08:00 +15°C° 0.1 mm 1 mps 710 mmHg 70%
    09:00 +16°C° 0.1 mm 1 mps 710 mmHg 66%
    10:00 +18°C° 0.1 mm 1 mps 710 mmHg 63%
    11:00 +19°C° 0.1 mm 1 mps 710 mmHg 59%
    12:00 +19°C° 0 mm 1 mps 710 mmHg 57%
    13:00 +20°C° 0 mm 1 mps 709 mmHg 54%
    14:00 +21°C° 0 mm 1 mps 709 mmHg 52%
    15:00 +21°C° 0 mm 1 mps 709 mmHg 51%
    16:00 +21°C° 0 mm 1 mps 709 mmHg 51%
    17:00 +21°C° 0 mm 1 mps 709 mmHg 50%
    18:00 +20°C° 0 mm 1 mps 709 mmHg 52%
    19:00 +20°C° 0 mm 1 mps 710 mmHg 54%
    20:00 +19°C° 0 mm 1 mps 710 mmHg 56%
    21:00 +18°C° 0 mm 1 mps 710 mmHg 57%
    22:00 +18°C° 0 mm 1 mps 710 mmHg 58%
    23:00 +16°C° 0 mm 1 mps 711 mmHg 59%
    Show more